Regional Weather Roundup
Issued by NWS

Home | Current Version | Previous Version | Graphics & Text | Print | Product List | Glossary On
Versions: 1 2 3 4 5 6 7 8 9 10 11 12 13 14 15 16 17 18 19 20 21 22 23 24 25 26 27 28 29 30 31 32 33 34 35 36 37 38 39 40 41 42 43 44 45 46 47 48 49 50
000
ASUS43 KOAX 011410
RWRNE

WEATHER ROUNDUP FOR NEBRASKA
NATIONAL WEATHER SERVICE OMAHA NE
800 AM CST SUN MAR 01 2015

NOTES: SATELLITE DATA IS BEING USED TO AUGMENT CLOUD COVER ABOVE
       12000 FEET.
       "FAIR" INDICATES FEW OR NO CLOUDS BELOW 12,000 FEET WITH NO
       SIGNIFICANT WEATHER AND/OR OBSTRUCTIONS TO VISIBILITY.

  * THESE STATIONS DO NOT REPORT WEATHER SUCH AS RAIN...SNOW OR FOG.

NEZ001>004-019>022-054>056-011500-
NEBRASKA PANHANDLE

CITY           SKY/WX    TMP DP  RH WIND       PRES   REMARKS
SCOTTSBLUFF    CLOUDY    18  12  77 CALM      30.23R
ALLIANCE       CLEAR     12   8  84 NW3       30.22R
CHADRON        CLOUDY    19  13  77 SW6       30.26R WCI  11
KIMBALL        PTCLDY    15  13  93 NW3       30.15R
SIDNEY         CLEAR     15  11  83 N7        30.20R WCI   5
$$

NEZ057>060-069>072-079>082-011500-
SOUTHWEST NEBRASKA

CITY           SKY/WX    TMP DP  RH WIND       PRES   REMARKS
NORTH PLATTE   PTCLDY    18  12  77 CALM      30.26R
IMPERIAL         N/A     18  12  77 N5        30.23R WCI  11
LEXINGTON      PTCLDY    13  10  90 W3        30.28R
MCCOOK         PTCLDY    15  10  80 W3        30.28R HAZE
OGALLALA       CLEAR     13  10  90 CALM      30.25R
$$

NEZ005>010-023>029-035>040-094-011500-
NORTH CENTRAL NEBRASKA

CITY           SKY/WX    TMP DP  RH WIND       PRES   REMARKS
VALENTINE      CLOUDY    16  13  88 SW5       30.28S WCI   9
AINSWORTH      CLOUDY    16  12  86 W5        30.29R FOG     WCI   9
BROKEN BOW     CLOUDY    19  10  68 N7        30.27R WCI  10
O`NEILL        CLOUDY    19  14  82 CALM      30.31R
ORD            CLOUDY    19  12  74 NW3       30.30R
THEDFORD       CLOUDY    19  10  69 N3        30.28R
$$

NEZ041-046>049-061>064-073>077-083>087-011500-
SOUTH CENTRAL NEBRASKA

CITY           SKY/WX    TMP DP  RH WIND       PRES   REMARKS
GRAND ISLAND   PTCLDY    18  13  80 W7        30.32R WCI   9
AURORA         CLEAR     17  15  91 W5        30.31R WCI  10
HASTINGS       PTCLDY    15  13  91 W5        30.30R WCI   8
HEBRON         CLOUDY    21  17  85 SW3       30.35R
HOLDREGE       CLOUDY    16  14  91 W6        30.29R WCI   7
KEARNEY *      PTCLDY    18  12  79 W6        30.30R WCI   9
YORK           PTCLDY    16  16 100 W6        30.33R WCI   7
$$

NEZ011>018-030>034-042>045-011500-
NORTHEAST NEBRASKA

CITY           SKY/WX    TMP DP  RH WIND       PRES   REMARKS
NORFOLK        MOCLDY    17  13  84 NW6       30.32R WCI   9
ALBION         CLOUDY    19  13  78 N7        30.31R WCI   9
BLAIR          MOSUNNY   17  13  83 SW5       30.32R WCI  10
COLUMBUS *     CLOUDY    18   7  62 NW7       30.34R WCI   8
FREMONT        CLOUDY    19  15  84 W9        30.34R WCI   8
TEKAMAH        CLOUDY    19  13  77 W5        30.35R WCI  12
WAYNE          CLOUDY    16  12  84 NW3       30.34R
$$

NEZ050>053-065>068-078-088>093-011500-
SOUTHEAST NEBRASKA

CITY           SKY/WX    TMP DP  RH WIND       PRES   REMARKS
LINCOLN        CLOUDY    20  15  81 SW3       30.36R
OMAHA EPPLEY   MOSUNNY   21  14  74 VRB3      30.36R
BEATRICE       CLOUDY    19  18  93 SW3       30.36R
FALLS CITY     CLOUDY    21  18  88 CALM      30.38R FOG
NEBRASKA CITY  PTSUNNY   21  18  88 SW3       30.35R
PLATTSMOUTH    CLOUDY    21  16  81 S3        30.34R
$$

NEZ044-045-051>053-067-011500-
OMAHA AREA

CITY           SKY/WX    TMP DP  RH WIND       PRES   REMARKS
OMAHA EPPLEY   MOSUNNY   21  14  74 VRB3      30.36R
BLAIR          MOSUNNY   17  13  83 SW5       30.32R WCI  10
FREMONT        CLOUDY    19  15  84 W9        30.34R WCI   8
MILLARD        CLOUDY    19  15  83 CALM      30.35R
OFFUTT AFB     CLOUDY    20  16  82 SW3       30.35R
PLATTSMOUTH    CLOUDY    21  16  81 S3        30.34R
WAHOO          FAIR      15  11  84 CALM      30.34R
$$


USA.gov is the U.S. government's official web portal to all federal, state and local government web resources and services.